Date String (YYYY-MM-DD hh:mm:ss) UTC,Instrument flags,Ambient pressure (hPa),Sample flow (lpm),Bypass flow (lpm),Sample temperature (°C),Ambient temperature (°C),ASC tube jacket temperature (°C),LED temperature (°C),Box temperature (°C),Sample RH (%),Span deviation,Mass concentration (μg/m³),Mass concentration (μg/m³),Mass concentration (μg/m³)
DateTimeUTC,F1_M11,P_M11,Q1_M11,Q2_M11,T1_M11,T2_M11,T3_M11,T4_M11,T5_M11,U1_M11,ZSPAN_M11,X2_M11,X0_M11,X1_M11
2021-10-04 05:00:00,,0831.7,5.00,0.00,29.9,28.9,00.0,38.9,31.6,12.4,0001.4,0004.05,0010.68,0003.56
2021-10-04 05:01:00,,0831.7,5.01,0.00,29.9,28.9,00.0,38.9,31.6,12.2,0001.1,0004.10,0010.66,0003.58
2021-10-04 05:02:00,,0831.8,5.00,0.00,29.9,29.0,00.0,38.9,31.7,12.1,0001.2,0004.11,0010.76,0003.58
2021-10-04 05:03:00,,0831.7,5.00,0.00,29.9,29.0,00.0,38.9,31.7,12.2,0001.1,0004.12,0010.75,0003.58
2021-10-04 05:04:00,,0831.7,5.01,0.00,29.9,29.0,00.0,39.0,31.7,12.0,0000.6,0004.09,0010.77,0003.57
2021-10-04 05:05:00,,0831.7,5.00,0.00,29.9,29.0,00.0,39.0,31.7,11.6,0000.3,0004.07,0010.48,0003.56
2021-10-04 05:06:00,,0831.7,5.01,0.00,30.0,29.1,00.0,39.0,31.7,11.5,0000.3,0004.04,0009.34,0003.54
2021-10-04 05:07:00,,0831.7,4.99,0.00,30.0,29.1,00.0,39.0,31.7,11.5,0000.1,0003.99,0008.67,0003.52
2021-10-04 05:08:00,,0831.7,5.00,0.00,30.0,29.1,00.0,39.0,31.8,11.5,0000.0,0003.97,0008.56,0003.51
2021-10-04 05:09:00,,0831.7,5.01,0.00,30.0,29.1,00.0,39.0,31.8,11.4,0000.0,0003.96,0008.37,0003.49
2021-10-04 05:10:00,,0831.7,4.98,0.00,30.0,29.1,00.0,39.1,31.9,11.3,0000.0,0003.91,0008.14,0003.46
2021-10-04 05:11:00,,0831.8,5.01,0.00,30.0,29.2,00.0,39.1,31.9,11.3,0000.0,0003.83,0008.20,0003.44
2021-10-04 05:12:00,,0831.7,5.01,0.00,30.1,29.2,00.0,39.1,31.9,11.4,0000.0,0003.78,0008.53,0003.42
2021-10-04 05:13:00,,0831.7,4.99,0.00,30.1,29.2,00.0,39.1,31.9,11.4,0000.0,0003.74,0008.36,0003.41
2021-10-04 05:14:00,,0831.7,5.00,0.00,30.1,29.2,00.0,39.1,31.9,11.4,0000.0,0003.69,0008.36,0003.41
2021-10-04 05:15:00,,0831.7,5.01,0.00,30.1,29.2,00.0,39.1,31.9,11.5,0000.0,0003.71,0009.70,0003.41
2021-10-04 05:16:00,,0831.7,4.98,0.00,30.1,29.2,00.0,39.1,31.9,11.4,0000.0,0003.73,0010.32,0003.41
2021-10-04 05:17:00,,0831.7,4.99,0.00,30.1,29.2,00.0,39.2,31.9,11.4,0000.0,0003.74,0010.57,0003.41
2021-10-04 05:18:00,,0831.7,5.00,0.00,30.1,29.2,00.0,39.2,31.9,11.4,0000.0,0003.80,0010.89,0003.41
2021-10-04 05:19:00,,0831.7,5.00,0.00,30.1,29.2,00.0,39.2,31.9,11.2,0000.0,0003.80,0011.13,0003.41
2021-10-04 05:20:00,,0831.8,5.00,0.00,30.1,29.2,00.0,39.2,31.9,11.1,0000.0,0003.79,0011.09,0003.41
2021-10-04 05:21:00,,0831.7,4.99,0.00,30.2,29.2,00.0,39.2,31.9,11.2,0000.0,0003.80,0010.56,0003.42
2021-10-04 05:22:00,,0831.7,5.00,0.00,30.2,29.2,00.0,39.2,31.9,11.0,0000.0,0003.83,0010.41,0003.43
2021-10-04 05:23:00,,0831.8,5.00,0.00,30.2,29.2,00.0,39.2,31.9,11.3,0000.0,0003.84,0010.22,0003.41
2021-10-04 05:24:00,,0831.7,5.01,0.00,30.2,29.2,00.0,39.2,31.9,11.6,0000.0,0003.88,0010.76,0003.41
2021-10-04 05:25:00,,0831.8,5.01,0.00,30.2,29.2,00.0,39.2,31.9,11.3,0000.0,0003.88,0010.73,0003.41
2021-10-04 05:26:00,,0831.9,5.00,0.00,30.2,29.2,00.0,39.3,31.9,11.5,0000.0,0003.87,0009.75,0003.40
2021-10-04 05:27:00,,0831.8,5.00,0.00,30.2,29.2,00.0,39.3,31.9,11.5,0000.0,0003.86,0009.25,0003.39
2021-10-04 05:28:00,,0831.8,4.99,0.00,30.2,29.2,00.0,39.3,31.9,11.5,0000.0,0003.84,0009.50,0003.39
2021-10-04 05:29:00,,0831.9,5.00,0.00,30.2,29.2,00.0,39.3,31.8,11.4,0000.0,0003.83,0009.52,0003.39
2021-10-04 05:30:00,,0831.8,5.01,0.00,30.2,29.1,00.0,39.3,31.9,11.5,0000.0,0003.81,0009.20,0003.38
2021-10-04 05:31:00,,0831.9,4.99,0.00,30.2,29.1,00.0,39.3,31.9,11.4,0000.0,0003.82,0009.23,0003.37
2021-10-04 05:32:00,,0832.0,5.01,0.00,30.2,29.1,00.0,39.3,31.9,11.2,0000.0,0003.83,0009.37,0003.36
2021-10-04 05:33:00,,0832.0,5.01,0.00,30.2,29.1,00.0,39.3,31.9,11.2,0000.0,0003.81,0009.33,0003.35
2021-10-04 05:34:00,,0832.0,5.00,0.00,30.2,29.1,00.0,39.3,31.9,11.1,0000.0,0003.78,0008.76,0003.34
2021-10-04 05:35:00,,0832.0,4.99,0.00,30.2,29.1,00.0,39.3,31.9,11.2,0000.0,0003.72,0008.22,0003.33
2021-10-04 05:36:00,,0831.9,5.00,0.00,30.2,29.1,00.0,39.3,31.9,11.2,0000.0,0003.71,0008.06,0003.32
2021-10-04 05:37:00,,0832.0,5.00,0.00,30.2,29.1,00.0,39.3,31.9,11.1,0000.0,0003.68,0008.27,0003.30
2021-10-04 05:38:00,,0832.0,5.00,0.00,30.2,29.1,00.0,39.3,31.9,11.2,0000.0,0003.69,0008.15,0003.29
2021-10-04 05:39:00,,0832.0,5.01,0.00,30.2,29.1,00.0,39.3,31.9,11.1,0000.0,0003.69,0007.57,0003.28
2021-10-04 05:40:00,,0832.0,5.00,0.00,30.2,29.1,00.0,39.3,31.9,11.2,0000.0,0003.67,0007.23,0003.27
2021-10-04 05:41:00,,0832.0,5.00,0.00,30.2,29.2,00.0,39.3,31.9,11.5,0000.0,0003.64,0007.17,0003.27
2021-10-04 05:42:00,,0832.0,5.00,0.00,30.2,29.2,00.0,39.3,31.9,11.1,0000.0,0003.61,0007.03,0003.26
2021-10-04 05:43:00,,0832.0,4.99,0.00,30.2,29.1,00.0,39.3,31.9,10.8,0001.0,0003.57,0006.61,0003.26
2021-10-04 05:44:00,,0831.9,5.00,0.00,30.2,29.2,00.0,39.3,31.9,10.7,0001.1,0003.55,0006.46,0003.25
2021-10-04 05:45:00,,0832.0,5.00,0.00,30.2,29.2,00.0,39.3,31.9,10.7,0000.4,0003.55,0006.50,0003.24
2021-10-04 05:46:00,,0832.0,5.00,0.00,30.2,29.2,00.0,39.4,31.9,10.7,0000.2,0003.54,0006.54,0003.23
2021-10-04 05:47:00,,0831.9,5.00,0.00,30.2,29.2,00.0,39.4,31.9,10.7,0000.3,0003.55,0006.65,0003.22
2021-10-04 05:48:00,,0832.0,5.01,0.00,30.2,29.1,00.0,39.4,31.9,10.6,0000.2,0003.56,0005.70,0003.22
2021-10-04 05:49:00,,0832.0,4.99,0.00,30.2,29.2,00.0,39.4,31.9,10.6,0000.3,0003.52,0005.45,0003.19
2021-10-04 05:50:00,,0831.9,4.99,0.00,30.2,29.2,00.0,39.4,31.9,10.6,0000.7,0003.47,0005.30,0003.17
2021-10-04 05:51:00,,0832.0,5.00,0.00,30.2,29.2,00.0,39.4,31.9,10.7,0000.9,0003.44,0005.15,0003.16
2021-10-04 05:52:00,,0832.0,5.01,0.00,30.2,29.1,00.0,39.4,31.9,10.5,0001.1,0003.40,0004.95,0003.14
2021-10-04 05:53:00,,0832.0,4.99,0.00,30.2,29.1,00.0,39.4,31.9,10.5,0002.1,0003.40,0004.97,0003.13
2021-10-04 05:54:00,,0832.0,4.99,0.00,30.2,29.2,00.0,39.4,31.9,10.4,0000.2,0003.39,0004.97,0003.12
2021-10-04 05:55:00,,0832.0,4.99,0.00,30.2,29.2,00.0,39.4,31.9,10.4,0000.0,0003.39,0005.08,0003.10
2021-10-04 05:56:00,,0831.9,5.00,0.00,30.2,29.1,00.0,39.4,31.9,10.4,0000.0,0003.42,0005.20,0003.10
2021-10-04 05:57:00,,0832.0,5.00,0.00,30.2,29.1,00.0,39.4,31.9,10.4,0000.0,0003.43,0005.24,0003.09
2021-10-04 05:58:00,,0832.0,5.00,0.00,30.2,29.2,00.0,39.4,31.9,10.4,0000.0,0003.40,0005.05,0003.07
2021-10-04 05:59:00,,0832.0,5.01,0.00,30.2,29.2,00.0,39.4,31.9,10.4,0000.0,0003.36,0004.91,0003.04
